Regional Weather Roundup
Issued by NWS

Home | Current Version | Previous Version | Text Only | Print | Product List | Glossary Off
Versions: 1 2 3 4 5 6 7 8 9 10 11 12 13 14 15 16 17 18 19 20 21 22 23 24 25 26 27 28 29 30 31 32 33 34 35 36 37 38 39 40 41 42 43 44 45 46 47 48 49 50

000
ASUS43 KLSX 291310
RWRMO

WEATHER SUMMARY FOR MISSOURI
NATIONAL WEATHER SERVICE SPRINGFIELD MO
800 AM CDT THU SEP 29 2016

NOTE: "FAIR" INDICATES FEW OR NO CLOUDS BELOW 12,000 FEET WITH NO
       SIGNIFICANT WEATHER AND/OR OBSTRUCTIONS TO VISIBILITY.
       CURRENT SKY AND/OR WEATHER CONDITIONS ARE NOT AVAILABLE FOR
       CHILLICOTHE AND FARMINGTON.

MOZ001>031-035>038-043-044-053-054-291400-
...NORTHERN AND WESTERN MISSOURI...

CITY           SKY/WX    TMP DP  RH WIND       PRES   REMARKS
KANSAS CTY INT CLEAR     49  46  90 NW6       30.35R
KANSAS C DTWN  CLEAR     53  49  86 CALM      30.35R
LEE`S SUMMIT   CLEAR     51  49  92 N9        30.34R
ST JOSEPH      CLEAR     48  46  93 N6        30.38R
CHILLICOTHE      N/A     53  49  86 N5        30.34R
KIRKSVILLE     CLEAR     50  47  89 NW9       30.30R

$$
MOZ066>068-077>081-088>096-101>105-291400-
...SOUTHWEST MISSOURI...

CITY           SKY/WX    TMP DP  RH WIND       PRES   REMARKS
SPRINGFIELD    CLEAR     49  46  90 NW7       30.28R
JOPLIN         CLEAR     48  46  93 N6        30.32R
BRANSON        CLEAR     50  48  93 CALM      30.27R

$$
MOZ032>034-039>042-045>050-055>058-069>072-291400-
...CENTRAL MISSOURI...

CITY           SKY/WX    TMP DP  RH WIND       PRES   REMARKS
COLUMBIA       SUNNY     52  49  89 NW13      30.26R
JEFFERSON CITY SUNNY     52  50  93 W6        30.26R
ROLLA          SUNNY     50  48  93 NW9       30.22R
SEDALIA        CLEAR     51  49  92 N9        30.30S
WHITEMAN AFB   CLEAR     50  50 100 NW5       30.30R
OSAGE BEACH    CLEAR     51  49  92 N5        30.28R

$$
MOZ051-052-059>065-291400-
...EAST CENTRAL MISSOURI...

CITY           SKY/WX    TMP DP  RH WIND       PRES   REMARKS
ST LOUIS INTL  MOSUNNY   56  49  77 NW9       30.18R
SPIRIT OF STL  SUNNY     54  50  86 NW8       30.18R
ST CHARLES     SUNNY     56  51  84 NW10G22   30.17R

$$
MOZ072>076-082>087-097>100-106>115-291400-
...SOUTH CENTRAL AND SOUTHEAST MISSOURI...

CITY           SKY/WX    TMP DP  RH WIND       PRES   REMARKS
CAPE GIRARDEAU PTSUNNY   53  50  89 W6        30.12R
FARMINGTON     SUNNY     53  49  86 NW9       30.17R
POPLAR BLUFF   MOSUNNY   54  50  86 NW9       30.14S
WEST PLAINS    SUNNY     53  48  83 N10       30.23S

$$




USA.gov is the U.S. government's official web portal to all federal, state and local government web resources and services.